| time (UTC) | temp F | wind direction | speed MPH | gust MPH | rain 1hr in | rain 24hr in | rain mn in | humidity % | barometer mb |
| 20260506042520 | 57 | 0.0 | 0.0 | 0.00 | 0.00 | 0.00 | 91 | 987.4 | |
| 20260506034511 | 57 | 0.0 | 0.0 | 0.00 | 0.00 | 0.00 | 90 | 987.3 | |
| 20260506032506 | 57 | 0.0 | 0.0 | 0.00 | 0.00 | 0.00 | 90 | 987.4 | |
| 20260506030501 | 57 | 0.0 | 0.0 | 0.00 | 0.00 | 0.00 | 89 | 987.6 | |
| 20260506022452 | 58 | 0.0 | 0.0 | 0.00 | 0.00 | 0.00 | 88 | 988.2 | |
| 20260506020448 | 57 | 0.0 | 0.0 | 0.00 | 0.00 | 0.00 | 88 | 988.3 | |
| 20260506014443 | 58 | 0.0 | 0.0 | 0.00 | 0.00 | 0.00 | 88 | 988.3 | |
| 20260506012438 | 58 | 0.0 | 0.0 | 0.00 | 0.00 | 0.00 | 88 | 988.4 | |
| 20260506010434 | 58 | 0.0 | 0.0 | 0.00 | 0.00 | 0.00 | 88 | 988.5 | |
| 20260506004429 | 58 | 0.0 | 0.0 | 0.00 | 0.00 | 0.00 | 88 | 988.7 | |
| 20260506002425 | 58 | 0.0 | 0.0 | 0.00 | 0.00 | 0.00 | 88 | 988.9 | |
| 20260506000420 | 58 | 0.0 | 0.0 | 0.00 | 0.00 | 0.00 | 88 | 989.2 | |
| 20260505234416 | 58 | 0.0 | 0.0 | 0.00 | 0.00 | 0.00 | 88 | 989.3 | |
| 20260505232411 | 57 | 0.0 | 0.0 | 0.00 | 0.00 | 0.00 | 87 | 989.2 | |
| 20260505230406 | 58 | 0.0 | 0.0 | 0.00 | 0.00 | 0.00 | 87 | 989.3 | |
| 20260505224402 | 58 | 0.0 | 0.0 | 0.00 | 0.00 | 0.00 | 87 | 989.5 | |
| 20260505222357 | 58 | 0.0 | 0.0 | 0.00 | 0.00 | 0.00 | 88 | 989.5 | |
| 20260505220353 | 58 | 0.0 | 0.0 | 0.00 | 0.00 | 0.00 | 87 | 989.6 | |
| 20260505214348 | 58 | 0.0 | 0.0 | 0.00 | 0.00 | 0.00 | 87 | 989.8 | |
| 20260505212344 | 58 | 0.0 | 0.0 | 0.00 | 0.00 | 0.00 | 87 | 990.0 | |
| 20260505210339 | 58 | 0.0 | 0.0 | 0.00 | 0.00 | 0.00 | 87 | 990.1 | |
| 20260505204334 | 58 | 0.0 | 0.0 | 0.00 | 0.00 | 0.00 | 86 | 990.2 | |
| 20260505202330 | 59 | 0.0 | 0.0 | 0.00 | 0.00 | 0.00 | 86 | 990.2 | |
| 20260505200325 | 58 | 0.0 | 0.0 | 0.00 | 0.00 | 0.00 | 86 | 990.1 | |
| 20260505194320 | 58 | 0.0 | 0.0 | 0.00 | 0.00 | 0.00 | 86 | 990.0 | |
| 20260505192316 | 58 | 0.0 | 0.0 | 0.00 | 0.00 | 0.00 | 86 | 989.9 | |
| 20260505190311 | 58 | 0.0 | 0.0 | 0.00 | 0.00 | 0.00 | 86 | 989.8 | |
| 20260505184307 | 58 | 0.0 | 0.0 | 0.00 | 0.00 | 0.00 | 85 | 989.8 | |
| 20260505182305 | 58 | 0.0 | 0.0 | 0.00 | 0.00 | 0.00 | 85 | 989.7 | |
| 20260505180258 | 59 | 0.0 | 0.0 | 0.00 | 0.00 | 0.00 | 84 | 989.7 | |
| 20260505174253 | 59 | 0.0 | 0.0 | 0.00 | 0.00 | 0.00 | 83 | 989.7 | |
| 20260505172249 | 59 | 0.0 | 0.0 | 0.00 | 0.00 | 0.00 | 83 | 989.7 | |
| 20260505170244 | 59 | 0.0 | 0.0 | 0.00 | 0.00 | 0.00 | 83 | 989.7 | |
| 20260505164239 | 59 | 0.0 | 0.0 | 0.00 | 0.00 | 0.00 | 83 | 989.7 | |
| 20260505162235 | 59 | 0.0 | 0.0 | 0.00 | 0.00 | 0.00 | 83 | 989.8 | |
| 20260505160230 | 59 | 0.0 | 0.0 | 0.00 | 0.00 | 0.00 | 83 | 989.8 | |
| 20260505152220 | 59 | 0.0 | 0.0 | 0.00 | 0.00 | 0.00 | 84 | 990.1 | |
| 20260505140202 | 58 | 0.0 | 0.0 | 0.00 | 0.00 | 0.00 | 86 | 990.4 | |
| 20260505130148 | 59 | 0.0 | 0.0 | 0.00 | 0.00 | 0.00 | 84 | 990.3 | |
| 20260505124143 | 59 | 0.0 | 0.0 | 0.00 | 0.00 | 0.00 | 84 | 990.5 | |
| 20260505122139 | 59 | 0.0 | 0.0 | 0.00 | 0.00 | 0.00 | 83 | 990.4 | |
| 20260505120134 | 59 | 0.0 | 0.0 | 0.00 | 0.00 | 0.00 | 83 | 990.6 | |
| 20260505114130 | 59 | 0.0 | 0.0 | 0.00 | 0.00 | 0.00 | 83 | 990.6 | |
| 20260505112125 | 59 | 0.0 | 0.0 | 0.00 | 0.00 | 0.00 | 83 | 990.5 | |
| 20260505102111 | 60 | 0.0 | 0.0 | 0.00 | 0.00 | 0.00 | 79 | 990.4 | |
| 20260505100107 | 62 | 0.0 | 0.0 | 0.00 | 0.00 | 0.00 | 77 | 990.3 | |
| 20260505094102 | 61 | 0.0 | 0.0 | 0.00 | 0.00 | 0.00 | 77 | 990.2 | |
| 20260505092058 | 62 | 0.0 | 0.0 | 0.00 | 0.00 | 0.00 | 76 | 990.1 | |
| 20260505090053 | 61 | 0.0 | 0.0 | 0.00 | 0.00 | 0.00 | 77 | 990.0 | |
| 20260505084048 | 60 | 0.0 | 0.0 | 0.00 | 0.00 | 0.00 | 78 | 989.8 | |
| 20260505082044 | 59 | 0.0 | 0.0 | 0.00 | 0.00 | 0.00 | 78 | 990.2 | |
| 20260505080039 | 59 | 0.0 | 0.0 | 0.00 | 0.00 | 0.00 | 78 | 990.1 | |
| 20260505074035 | 59 | 0.0 | 0.0 | 0.00 | 0.00 | 0.00 | 75 | 990.4 | |
| 20260505070025 | 60 | 0.0 | 0.0 | 0.00 | 0.00 | 0.00 | 69 | 990.3 | |
| 20260505064021 | 60 | 0.0 | 0.0 | 0.00 | 0.00 | 0.00 | 67 | 990.0 | |
| 20260505062016 | 60 | 0.0 | 0.0 | 0.00 | 0.00 | 0.00 | 66 | 989.8 | |
| 20260505060012 | 61 | 0.0 | 0.0 | 0.00 | 0.00 | 0.00 | 62 | 989.7 | |
| 20260505054007 | 61 | 0.0 | 0.0 | 0.00 | 0.00 | 0.00 | 60 | 989.6 | |
| 20260505052003 | 60 | 0.0 | 0.0 | 0.00 | 0.00 | 0.00 | 60 | 989.4 |